Flag for U.S.A. Weather past 2 weeks in Sunrise, Florida, U.S.A.

Now
81 °F

Scattered clouds.


Feels Like: 81 °F
Forecast: 69 / 81 °F
Wind: 17 mph from East

Location: Fort Lauderdale Executive Airport

Current Time: May 3, 2015 at 3:11:15 PM

Latest Report: May 3, 2015 at 1:53 PM


Visibility: 10 mi

Pressure: 30.12 "Hg

Humidity: 44%

Dew point: 57 °F

Location of SunriseLocation

Historic Weather in Sunrise — Graph

°F

Sunrise temperature yesterday

Maximum temperature yesterday: 81 °F (at 1:53 PM)
Minimum temperature yesterday: 69 °F (at 1:53 AM)
Average temperature yesterday: 75 °F

Past Weeks' High & Low Weather Summary

 TemperatureHumidityPressure
High97 °F (Apr 26, 2:53 PM)100% (Apr 20, 4:53 PM)30.14 "Hg (Apr 20, 4:53 PM)
Low66 °F (May 1, 6:53 AM)33% (May 1, 3:53 PM)29.69 "Hg (Apr 29, 6:00 PM)
Average79 °F76%29.90 "Hg
* Reported Apr 18 1:53 PM — May 3 1:53 PM, Sunrise, Weather by CustomWeather, © 2015

Note: Actual official high and low records may vary slightly from our data, if they occured in-between our weather recording intervals... More about our weather records

Advertising

Sunrise weather history for previous 24 hours

 ConditionsComfort  
Time TempWeatherWind HumidityBarometerVisibility
1:53 PM
Sun, May 3
81 °FScattered clouds.17 mph44%30.12 "Hg10 mi
12:53 PM82 °FPassing clouds.20 mph43%30.13 "Hg10 mi
11:53 AM81 °FScattered clouds.21 mph39%30.14 "Hg10 mi
10:53 AM79 °FPassing clouds.17 mph44%30.13 "Hg10 mi
9:53 AM78 °FPassing clouds.16 mph43%30.11 "Hg10 mi
8:53 AM77 °FPassing clouds.16 mph45%30.10 "Hg10 mi
7:53 AM75 °FPassing clouds.8 mph50%30.09 "Hg10 mi
6:53 AM72 °FClear.7 mph55%30.07 "Hg10 mi
5:53 AM72 °FPartly cloudy.7 mph57%30.06 "Hg10 mi
4:53 AM72 °FClear.8 mph53%30.05 "Hg10 mi
3:53 AM73 °FClear.9 mph51%30.05 "Hg10 mi
2:53 AM73 °FClear.9 mph53%30.05 "Hg10 mi
1:53 AM73 °FPassing clouds.13 mph55%30.06 "Hg10 mi
12:53 AM74 °FPassing clouds.14 mph56%30.06 "Hg10 mi
11:53 PM
Sat, May 2
74 °FPassing clouds.12 mph60%30.06 "Hg10 mi
10:53 PM74 °FPassing clouds.10 mph60%30.06 "Hg10 mi
9:53 PM75 °FPassing clouds.12 mph58%30.04 "Hg10 mi
8:53 PM75 °FPassing clouds.12 mph58%30.03 "Hg10 mi
7:53 PM76 °FPassing clouds.13 mph54%30.01 "Hg10 mi
6:53 PM77 °FScattered clouds.8 mph50%30.00 "Hg10 mi
5:53 PM78 °FPassing clouds.12 mph50%29.99 "Hg10 mi
4:53 PM79 °FScattered clouds.14 mph48%30.00 "Hg10 mi
3:53 PM79 °FScattered clouds.15 mph50%30.01 "Hg10 mi
Weather by CustomWeather, © 2015

See weather overviewHow to use our weather pages